Preview of NWS' New Version of Forecast
This preview is not operational and should not be used for support decisions.

Regional Weather Roundup (RWR)

Issued by National Weather Service (NWS)

                            
000
ASUS43 KTOP 181508
RWRKS 

WEATHER ROUNDUP FOR KANSAS
NATIONAL WEATHER SERVICE GOODLAND KS
1000 AM CDT TUE JUN 18 2019

NOTE:  "FAIR" INDICATES FEW OR NO CLOUDS BELOW 12,000 FEET WITH NO
SIGNIFICANT WEATHER AND/OR OBSTRUCTIONS TO VISIBILITY.

KSZ001>006-013>018-027>032-041>047-181600-
NORTHWEST KANSAS
  
CITY           SKY/WX    TMP DP  RH WIND       PRES   REMARKS
GOODLAND       CLOUDY    62  60  93 N6        30.03R                  
HAYS           CLOUDY    65  63  93 E3        29.98S                  
HILL CITY      CLOUDY    64  63  96 E7        29.99R                  
RUSSELL        LGT RAIN  66  63  90 CALM      29.97S                  
$$

KSZ061>065-074>080-084>089-181600-
SOUTHWEST KANSAS
  
CITY           SKY/WX    TMP DP  RH WIND       PRES   REMARKS
DODGE CITY     CLOUDY    69  65  86 SE6       29.98R                  
ELKHART        MOSUNNY   68  62  82 S5        30.02R                  
GARDEN CITY    PTSUNNY   67  63  87 SW3       29.99R                  
GREAT BEND     RAIN      64  62  93 VRB3      29.99R FOG              
LIBERAL        MOSUNNY   67  63  87 SE7       30.00R                  
PRATT          PTSUNNY   67  65  94 E7        29.96F                  
$$

KSZ066>073-081>083-090>101-181600-
SOUTHEAST KANSAS
  
CITY           SKY/WX    TMP DP  RH WIND       PRES   REMARKS
CHANUTE        MOSUNNY   77  68  73 E5        29.95S                  
COFFEYVILLE    SUNNY     78  68  71 VRB3      29.93S                  
HUTCHINSON     CLOUDY    72  65  78 CALM      29.95S                  
MEDICINE LODGE   N/A     71  65  81 E6        29.95R                  
NEWTON         PTSUNNY   72  64  76 CALM      29.97R                  
PARSONS        SUNNY     76  69  79 VRB3      29.95S                  
WICHITA INTL   CLOUDY    76  65  68 CALM      29.95R                  
WICHITA JABRA  SUNNY     74  66  76 CALM      29.95S                  
WICHITA MCCONL PTSUNNY   75  65  71 CALM      29.96                   
WINFIELD       SUNNY     74  67  78 W5        29.97R                  
$$

KSZ007>012-019>026-033>040-048>060-102>105-181600-
NORTHEAST KANSAS
  
CITY           SKY/WX    TMP DP  RH WIND       PRES   REMARKS
CONCORDIA      LGT RAIN  70  65  84 E3        29.94R                  
EMPORIA        SUNNY     76  69  79 S5        29.95R                  
LAWRENCE       CLOUDY    72  66  81 E8        29.95R                  
MANHATTAN      SUNNY     77  67  71 E3        29.93R                  
MARYSVILLE     SUNNY     77  68  73 E3        29.94F                  
OLATHE IND     CLOUDY    69  65  86 E6        29.96S                  
OLATHE EXE     PTSUNNY   70  66  87 VRB5      29.95F                  
SALINA         SUNNY     72  66  81 SW5       29.94R                  
TOPEKA BILLARD MOSUNNY   78  68  71 VRB6      29.94R                  
TOPEKA FORBES  SUNNY     77  66  68 VRB3      29.94S                  
$$